Location: Alvis C Story Elementary School
(33.0968°N, 96.6364°W)
Time: 13:23:01
(UTC+00:00)

H-2A R/B - Pass Details

Date: 08 December 2021
Orbit: 496 x 536 km, 97.3° (Epoch: 20 January)

Event Time Altitude Azimuth Distance (km) Brightness Sun altitude
Exits shadow 12:14:24 20° 271° (W) 1,255 4.1 -13.0°
Drops below altitude 10° 12:16:30 10° 239° (WSW) 1,752 5.0 -12.6°
Sets 12:18:59 0° 222° (SW) 2,644 6.1 -12.1°
